EW4784 Weather Reports


Display with metric or nautical units.
time (UTC)temp
F
wind
direction
speed
MPH
gust
MPH
rain 1hr
in
rain 24hr
in
rain mn
in
humidity
%
barometer
mb
20260902090100 75 302 1.0 4.0 0.00 0.00 0.00 94 1014.6
20260902085538 75 264 1.0 7.0 0.00 0.00 0.00 94 1014.5
20260902085038 75 276 1.0 6.0 0.00 0.00 0.00 94 1014.6
20260902084537 75 308 1.0 5.0 0.00 0.00 0.00 94 1014.7
20260902084036 75 278 1.0 6.0 0.00 0.00 0.00 94 1014.7
20260902083534 75 292 0.0 4.0 0.00 0.00 0.00 94 1014.6
20260902083033 75 281 1.0 4.0 0.00 0.00 0.00 94 1014.6
20260902082532 75 281 1.0 6.0 0.00 0.00 0.00 94 1014.6
20260902082031 75 278 0.0 3.0 0.00 0.00 0.00 94 1014.7
20260902081530 75 314 2.0 6.0 0.00 0.00 0.00 94 1014.7
20260902081030 75 305 0.0 5.0 0.00 0.00 0.00 94 1014.7
20260902080550 75 301 1.0 9.0 0.00 0.00 0.00 94 1014.7
20260902080048 75 273 0.0 1.0 0.00 0.00 0.00 94 1014.8
20260902075526 75 282 0.0 3.0 0.00 0.00 0.00 94 1014.8
20260902075025 74 288 0.0 3.0 0.00 0.00 0.00 94 1014.8
20260902074524 74 0 0.0 0.0 0.00 0.00 0.00 94 1014.6
20260902074023 74 0 0.0 0.0 0.00 0.00 0.00 94 1014.5
20260902073543 74 0 0.0 0.0 0.00 0.00 0.00 94 1014.6
20260902073021 74 0 0.0 0.0 0.00 0.00 0.00 93 1014.7
20260902072520 74 0 0.0 0.0 0.00 0.00 0.00 93 1014.7
20260902072041 74 0 0.0 0.0 0.00 0.00 0.00 93 1014.7
20260902071518 74 0 0.0 0.0 0.00 0.00 0.00 93 1014.7
20260902071039 74 0 0.0 0.0 0.00 0.00 0.00 93 1014.7
20260902070516 74 0 0.0 0.0 0.00 0.00 0.00 93 1014.6
20260902070015 74 0 0.0 0.0 0.00 0.00 0.00 93 1014.6
20260902065515 74 0 0.0 0.0 0.00 0.00 0.00 93 1014.6
20260902065013 74 0 0.0 0.0 0.00 0.00 0.00 93 1014.6
20260902064512 74 0 0.0 0.0 0.00 0.00 0.00 93 1014.7
20260902064012 74 0 0.0 0.0 0.00 0.00 0.00 92 1014.7
20260902063510 74 0 0.0 0.0 0.00 0.00 0.00 92 1014.6
20260902063009 74 0 0.0 0.0 0.00 0.00 0.00 92 1014.7
20260902062529 74 0 0.0 0.0 0.00 0.00 0.00 92 1014.7
20260902062007 74 0 0.0 0.0 0.00 0.00 0.00 92 1014.8
20260902061528 74 0 0.0 0.0 0.00 0.00 0.00 92 1014.9
20260902061005 74 0 0.0 0.0 0.00 0.00 0.00 91 1014.9
20260902060525 74 0 0.0 0.0 0.00 0.00 0.00 91 1015.0
20260902060003 75 0 0.0 0.0 0.00 0.00 0.00 91 1015.0
20260902055502 75 0 0.0 0.0 0.00 0.00 0.00 91 1015.1
20260902055002 75 0 0.0 0.0 0.00 0.00 0.00 91 1015.1
20260902054522 75 0 0.0 0.0 0.00 0.00 0.00 91 1015.2
20260902054000 75 355 0.0 0.0 0.00 0.00 0.00 91 1015.2
20260902053458 75 272 0.0 0.0 0.00 0.00 0.00 91 1015.2
20260902052957 75 272 0.0 0.0 0.00 0.00 0.00 91 1015.2
20260902052456 75 272 0.0 0.0 0.00 0.00 0.00 90 1015.2
20260902052016 75 272 0.0 0.0 0.00 0.00 0.00 90 1015.3
20260902051515 75 272 0.0 0.0 0.00 0.00 0.00 90 1015.3
20260902050953 75 272 0.0 0.0 0.00 0.00 0.00 90 1015.3
20260902050452 75 272 0.0 0.0 0.00 0.00 0.00 90 1015.3
20260902045951 75 272 0.0 0.0 0.00 0.00 0.00 89 1015.3
20260902045450 75 272 0.0 0.0 0.00 0.00 0.00 90 1015.3
20260902044949 75 272 0.0 0.0 0.00 0.00 0.00 90 1015.3
20260902044448 75 272 0.0 0.0 0.00 0.00 0.00 90 1015.3
20260902043947 75 272 0.0 0.0 0.00 0.00 0.00 90 1015.3
20260902043446 75 272 0.0 0.0 0.00 0.00 0.00 90 1015.3
20260902042946 75 272 0.0 0.0 0.00 0.00 0.00 90 1015.3
20260902042444 75 272 0.0 0.0 0.00 0.00 0.00 90 1015.3
20260902041943 75 273 0.0 0.0 0.00 0.00 0.00 90 1015.2
20260902041441 75 273 0.0 0.0 0.00 0.00 0.00 90 1015.2
20260902040941 75 281 0.0 0.0 0.00 0.00 0.00 90 1015.2
20260902040440 75 281 0.0 0.0 0.00 0.00 0.00 89 1015.0
20260902035939 75 281 0.0 0.0 0.00 0.00 0.00 89 1015.1
20260902035459 76 281 0.0 0.0 0.00 0.00 0.00 89 1015.1
20260902034958 76 271 0.0 0.0 0.00 0.00 0.00 89 1015.1
20260902034457 76 270 0.0 0.0 0.00 0.00 0.00 89 1015.1
20260902033935 76 258 0.0 0.0 0.00 0.00 0.00 89 1015.1
20260902033434 76 254 0.0 0.0 0.00 0.00 0.00 88 1015.0
20260902032933 76 254 0.0 0.0 0.00 0.00 0.00 88 1015.0
20260902032432 76 254 0.0 0.0 0.00 0.00 0.00 88 1015.0
20260902031952 76 254 0.0 0.0 0.00 0.00 0.00 88 1014.9
20260902031430 76 254 0.0 0.0 0.00 0.00 0.00 88 1014.9
20260902030950 76 254 0.0 0.0 0.00 0.00 0.00 87 1014.8
20260902030429 76 254 0.0 0.0 0.00 0.00 0.00 87 1014.8
20260902025927 77 254 0.0 0.0 0.00 0.00 0.00 87 1014.8
20260902025426 77 254 0.0 0.0 0.00 0.00 0.00 87 1014.8
20260902024925 77 254 0.0 0.0 0.00 0.00 0.00 86 1014.8
20260902024423 77 254 0.0 0.0 0.00 0.00 0.00 86 1014.8
20260902023922 77 254 0.0 0.0 0.00 0.00 0.00 86 1014.7
20260902023422 78 254 0.0 0.0 0.00 0.00 0.00 85 1014.5
20260902022920 78 254 0.0 0.0 0.00 0.00 0.00 84 1014.6
20260902022419 78 254 0.0 0.0 0.00 0.00 0.00 84 1014.6
20260902021919 78 280 0.0 4.0 0.00 0.00 0.00 83 1014.6
20260902021417 78 275 0.0 2.0 0.00 0.00 0.00 83 1014.6
20260902020916 79 264 0.0 0.0 0.00 0.00 0.00 82 1014.5
20260902020437 79 264 0.0 0.0 0.00 0.00 0.00 82 1014.4
20260902015915 79 265 0.0 0.0 0.00 0.00 0.00 81 1014.4
20260902015413 79 278 1.0 8.0 0.00 0.00 0.00 81 1014.5
20260902014913 79 291 2.0 8.0 0.00 0.00 0.00 81 1014.6
20260902014412 80 273 0.0 4.0 0.00 0.00 0.00 80 1014.6
20260902013910 80 270 1.0 8.0 0.00 0.00 0.00 80 1014.7
20260902013409 80 286 2.0 9.0 0.00 0.00 0.00 80 1014.7
20260902012909 80 288 3.0 10.0 0.00 0.00 0.00 80 1014.7
20260902012407 80 311 1.0 7.0 0.00 0.00 0.00 80 1014.7
20260902011927 80 303 1.0 6.0 0.00 0.00 0.00 80 1014.6
20260902011406 80 285 3.0 11.0 0.00 0.00 0.00 80 1014.5
20260902010904 80 303 2.0 8.0 0.00 0.00 0.00 79 1014.5
20260902010404 80 280 2.0 8.0 0.00 0.00 0.00 79 1014.4
20260902005902 81 300 2.0 8.0 0.00 0.00 0.00 79 1014.4
20260902005401 81 281 1.0 6.0 0.00 0.00 0.00 79 1014.3
20260902004900 81 278 3.0 10.0 0.00 0.00 0.00 78 1014.3
20260902004359 81 279 2.0 9.0 0.00 0.00 0.00 78 1014.1
20260902003858 82 287 5.0 12.0 0.00 0.00 0.00 78 1014.1
20260902003357 82 299 3.0 12.0 0.00 0.00 0.00 78 1014.1
20260902002856 82 293 4.0 21.0 0.00 0.00 0.00 77 1014.0
20260902002416 82 280 5.0 15.0 0.00 0.00 0.00 77 1014.1
20260902001915 82 292 5.0 13.0 0.00 0.00 0.00 77 1014.1
20260902001354 83 298 6.0 14.0 0.00 0.00 0.00 77 1014.1
20260902000852 83 303 3.0 12.0 0.00 0.00 0.00 76 1014.1
20260902000352 83 309 5.0 19.0 0.00 0.00 0.00 76 1014.1
20260901235851 83 278 2.0 14.0 0.00 0.00 0.00 75 1014.0
20260901235349 84 300 3.0 13.0 0.00 0.00 0.00 75 1014.0
20260901234848 84 285 7.0 26.0 0.00 0.00 0.00 74 1014.0
20260901234409 85 288 11.0 23.0 0.00 0.00 0.00 74 1014.0
20260901233847 85 288 9.0 19.0 0.00 0.00 0.00 74 1013.9
20260901233345 85 279 3.0 11.0 0.00 0.00 0.00 74 1013.8
20260901232845 86 292 4.0 15.0 0.00 0.00 0.00 73 1013.8
20260901232343 86 285 6.0 20.0 0.00 0.00 0.00 73 1013.7
20260901231904 87 265 1.0 8.0 0.00 0.00 0.00 72 1013.7
20260901231342 87 282 1.0 8.0 0.00 0.00 0.00 71 1013.7
20260901230901 87 304 1.0 6.0 0.00 0.00 0.00 70 1013.7
20260901230339 87 287 5.0 12.0 0.00 0.00 0.00 69 1013.7
20260901225838 88 279 4.0 15.0 0.00 0.00 0.00 68 1013.7
20260901225337 88 308 5.0 15.0 0.00 0.00 0.00 67 1013.6
20260901224836 89 266 1.0 9.0 0.00 0.00 0.00 66 1013.5
20260901224335 89 273 4.0 12.0 0.00 0.00 0.00 65 1013.4
20260901223856 91 293 1.0 6.0 0.00 0.00 0.00 64 1013.3
20260901223333 91 316 1.0 5.0 0.00 0.00 0.00 64 1013.3
20260901222833 90 303 1.0 7.0 0.00 0.00 0.00 66 1013.4
20260901222331 89 271 0.0 3.0 0.00 0.00 0.00 68 1013.4
20260901221830 89 342 0.0 0.0 0.00 0.00 0.00 68 1013.4
20260901221350 89 341 1.0 7.0 0.00 0.00 0.00 66 1013.4
20260901220828 89 349 4.0 6.0 0.00 0.00 0.00 68 1013.4
20260901220327 88 330 1.0 6.0 0.00 0.00 0.00 68 1013.5
20260901215826 88 322 1.0 6.0 0.00 0.00 0.00 67 1013.4
20260901215325 89 310 1.0 6.0 0.00 0.00 0.00 66 1013.3
20260901214824 89 312 4.0 14.0 0.00 0.00 0.00 65 1013.2
20260901214323 89 313 4.0 14.0 0.00 0.01 0.00 65 1013.2
20260901213822 89 316 6.0 17.0 0.00 0.01 0.00 65 1013.2
20260901213321 89 331 5.0 15.0 0.00 0.01 0.00 65 1013.2
20260901212821 89 311 4.0 15.0 0.00 0.01 0.00 66 1013.2
20260901212340 89 299 4.0 11.0 0.00 0.01 0.00 65 1013.2
20260901211818 89 271 7.0 24.0 0.00 0.01 0.00 65 1013.2
20260901211318 90 308 6.0 13.0 0.00 0.01 0.00 65 1013.3
20260901210816 90 291 8.0 23.0 0.00 0.01 0.00 65 1013.3
20260901210315 90 265 3.0 9.0 0.00 0.01 0.00 66 1013.3
20260901205814 90 290 5.0 18.0 0.00 0.01 0.00 66 1013.4
20260901205313 90 304 5.0 22.0 0.00 0.01 0.00 67 1013.4
20260901204812 89 277 1.0 8.0 0.00 0.01 0.00 68 1013.4
20260901204311 89 316 5.0 13.0 0.00 0.01 0.00 68 1013.4
20260901203810 89 307 3.0 12.0 0.00 0.01 0.00 68 1013.4
20260901203310 89 309 4.0 10.0 0.00 0.01 0.00 67 1013.5
20260901202808 89 333 3.0 12.0 0.00 0.01 0.00 66 1013.4
20260901202306 90 325 6.0 13.0 0.00 0.01 0.00 66 1013.4
20260901201805 90 348 5.0 14.0 0.00 0.01 0.00 66 1013.4
20260901201305 90 343 5.0 12.0 0.00 0.01 0.00 66 1013.4
20260901200804 90 4 5.0 16.0 0.00 0.01 0.00 67 1013.4
20260901200303 89 0 5.0 17.0 0.00 0.01 0.00 66 1013.5
20260901195802 90 336 6.0 13.0 0.00 0.01 0.00 66 1013.4
20260901195301 90 325 3.0 17.0 0.00 0.01 0.00 65 1013.5
20260901194759 91 313 11.0 22.0 0.00 0.01 0.00 64 1013.5
20260901194258 90 316 3.0 11.0 0.00 0.01 0.00 66 1013.6
20260901193758 90 322 5.0 16.0 0.00 0.01 0.00 64 1013.6
20260901193256 91 308 9.0 20.0 0.00 0.01 0.00 63 1013.6
20260901192756 91 265 2.0 15.0 0.00 0.01 0.00 63 1013.6
20260901192316 91 287 7.0 20.0 0.00 0.01 0.00 63 1013.6
20260901191754 92 280 5.0 17.0 0.00 0.01 0.00 63 1013.7
20260901191314 92 272 7.0 27.0 0.00 0.01 0.00 62 1013.7
20260901190813 92 284 5.0 17.0 0.00 0.01 0.00 62 1013.6
20260901190251 92 283 5.0 18.0 0.00 0.01 0.00 62 1013.6
20260901185750 92 281 5.0 20.0 0.00 0.01 0.00 61 1013.6
20260901185249 92 314 7.0 17.0 0.00 0.01 0.00 60 1013.5
20260901184809 92 300 5.0 14.0 0.00 0.01 0.00 60 1013.5
20260901184247 92 324 4.0 15.0 0.00 0.01 0.00 61 1013.4
20260901183746 93 346 8.0 13.0 0.00 0.01 0.00 59 1013.3
20260901183244 94 344 5.0 14.0 0.00 0.01 0.00 57 1013.2
20260901182744 96 10 8.0 18.0 0.00 0.01 0.00 56 1013.1
20260901182243 95 12 7.0 16.0 0.00 0.01 0.00 56 1013.1
20260901181742 95 354 7.0 14.0 0.00 0.01 0.00 56 1013.2
20260901181240 95 308 5.0 13.0 0.00 0.01 0.00 56 1013.2
20260901180740 95 314 3.0 11.0 0.00 0.01 0.00 56 1013.2
20260901180240 94 300 6.0 17.0 0.00 0.01 0.00 58 1013.3
20260901175738 94 294 7.0 19.0 0.00 0.01 0.00 57 1013.3
20260901175236 94 291 6.0 19.0 0.00 0.01 0.00 58 1013.1
20260901174735 94 295 4.0 15.0 0.00 0.01 0.00 58 1013.2
20260901174235 93 307 5.0 16.0 0.00 0.01 0.00 60 1013.3
20260901173734 93 7 1.0 10.0 0.00 0.01 0.00 61 1013.3
20260901173233 93 312 1.0 9.0 0.00 0.01 0.00 60 1013.4
20260901172732 92 281 1.0 5.0 0.00 0.01 0.00 62 1013.4
20260901172230 92 218 3.0 13.0 0.00 0.01 0.00 62 1013.5
20260901171730 91 293 6.0 13.0 0.00 0.01 0.00 64 1013.7
20260901171229 90 304 5.0 12.0 0.00 0.01 0.00 64 1013.8
20260901170727 91 309 6.0 17.0 0.00 0.01 0.00 62 1013.8
20260901170227 92 322 9.0 21.0 0.00 0.01 0.00 61 1013.9
20260901165726 92 312 4.0 13.0 0.00 0.01 0.00 63 1013.9
20260901165245 91 318 5.0 15.0 0.00 0.01 0.00 64 1014.0
20260901164724 91 323 5.0 10.0 0.00 0.01 0.00 63 1014.0
20260901164222 92 318 4.0 8.0 0.00 0.01 0.00 62 1013.9
20260901163721 92 168 0.0 3.0 0.00 0.01 0.00 65 1014.0
20260901163220 90 169 1.0 6.0 0.00 0.01 0.00 66 1014.2
20260901162740 90 291 2.0 10.0 0.00 0.01 0.00 66 1014.3
20260901162239 89 289 5.0 12.0 0.00 0.01 0.00 66 1014.4
20260901161738 89 306 6.0 15.0 0.00 0.01 0.00 66 1014.5
20260901161216 89 261 2.0 6.0 0.00 0.01 0.00 68 1014.6
20260901160716 88 269 1.0 5.0 0.00 0.02 0.00 67 1014.6
20260901155212 86 303 6.0 7.0 0.00 0.02 0.00 71 1014.6
20260901154711 86 340 3.0 9.0 0.00 0.02 0.00 71 1014.7
20260901154210 86 323 3.0 7.0 0.00 0.02 0.00 71 1014.7
20260901153709 86 340 3.0 8.0 0.00 0.02 0.00 72 1014.7
20260901153208 86 354 2.0 7.0 0.00 0.02 0.00 73 1014.7
20260901152707 85 280 0.0 2.0 0.00 0.02 0.00 74 1014.8
20260901152207 84 310 1.0 7.0 0.00 0.02 0.00 75 1014.9
20260901151705 84 303 1.0 8.0 0.00 0.02 0.00 76 1015.0
20260901151204 83 340 0.0 3.0 0.00 0.02 0.00 77 1015.1
20260901150703 83 287 1.0 9.0 0.00 0.02 0.00 77 1015.2
20260901150202 82 298 0.0 2.0 0.00 0.02 0.00 78 1015.2
20260901145701 82 330 2.0 7.0 0.00 0.02 0.00 77 1015.2
20260901145201 82 333 4.0 11.0 0.00 0.02 0.00 78 1015.2
20260901144659 82 286 2.0 10.0 0.00 0.02 0.00 79 1015.2
20260901144158 82 325 1.0 8.0 0.00 0.02 0.00 79 1015.2
20260901143657 82 15 0.0 3.0 0.00 0.02 0.00 78 1015.3
20260901143157 82 3 2.0 8.0 0.00 0.02 0.00 78 1015.4
20260901142655 82 8 3.0 10.0 0.00 0.02 0.00 78 1015.3
20260901142215 81 328 4.0 11.0 0.00 0.02 0.00 78 1015.4
20260901141653 80 324 4.0 12.0 0.00 0.02 0.00 80 1015.4
20260901141152 79 314 7.0 12.0 0.00 0.02 0.00 82 1015.5
20260901140651 78 312 3.0 10.0 0.00 0.02 0.00 82 1015.4
20260901140151 78 314 3.0 11.0 0.00 0.02 0.00 82 1015.4
20260901135649 79 309 2.0 8.0 0.00 0.02 0.00 82 1015.4
20260901135148 79 0 1.0 5.0 0.00 0.02 0.00 83 1015.3
20260901134647 78 326 1.0 5.0 0.00 0.02 0.00 83 1015.2
20260901134146 78 292 1.0 5.0 0.00 0.02 0.00 83 1015.2
20260901133645 78 299 2.0 8.0 0.00 0.02 0.00 83 1015.3
20260901133144 78 311 3.0 9.0 0.00 0.02 0.00 83 1015.3
20260901132643 78 306 1.0 6.0 0.00 0.02 0.00 83 1015.2
20260901132142 78 321 1.0 7.0 0.00 0.02 0.00 82 1015.1
20260901131641 77 314 1.0 8.0 0.00 0.02 0.00 84 1015.1
20260901131140 77 335 1.0 9.0 0.00 0.02 0.00 85 1015.2
20260901130638 76 304 2.0 7.0 0.00 0.02 0.00 85 1015.3
20260901130138 76 327 3.0 14.0 0.00 0.02 0.00 87 1015.4
20260901125638 75 325 1.0 7.0 0.00 0.02 0.00 88 1015.5
20260901125158 75 305 0.0 2.0 0.00 0.02 0.00 88 1015.4
20260901124656 75 310 1.0 7.0 0.00 0.02 0.00 88 1015.5
20260901124134 74 286 2.0 8.0 0.00 0.02 0.00 89 1015.6
20260901123633 74 279 2.0 10.0 0.00 0.02 0.00 90 1015.7
20260901123132 74 305 0.0 6.0 0.00 0.02 0.00 91 1015.6
20260901122631 74 304 0.0 3.0 0.00 0.02 0.00 91 1015.5
20260901122130 73 281 0.0 4.0 0.00 0.02 0.00 92 1015.5
20260901121628 73 285 1.0 9.0 0.00 0.02 0.00 93 1015.5
20260901121128 72 315 1.0 10.0 0.00 0.02 0.00 94 1015.5
20260901120627 72 296 1.0 7.0 0.00 0.02 0.00 94 1015.5
20260901120126 72 301 0.0 0.0 0.00 0.02 0.00 95 1015.4
20260901115625 71 298 0.0 5.0 0.00 0.02 0.00 95 1015.4
20260901115124 71 284 0.0 3.0 0.00 0.02 0.00 95 1015.4
20260901114623 71 323 0.0 0.0 0.00 0.02 0.00 95 1015.4
20260901114143 71 330 0.0 2.0 0.00 0.02 0.00 96 1015.4
20260901113620 71 1 0.0 0.0 0.00 0.02 0.00 96 1015.3
20260901113119 70 1 0.0 0.0 0.00 0.02 0.00 96 1015.3
20260901112619 70 1 0.0 0.0 0.00 0.02 0.00 95 1015.3
20260901112118 70 1 0.0 0.0 0.00 0.02 0.00 95 1015.2
20260901111617 70 1 0.0 0.0 0.00 0.02 0.00 95 1015.3
20260901111116 70 351 0.0 1.0 0.00 0.02 0.00 95 1015.2
20260901110636 70 306 0.0 0.0 0.00 0.02 0.00 95 1015.2
20260901110113 70 321 0.0 0.0 0.00 0.02 0.00 95 1015.1
20260901105612 71 243 0.0 0.0 0.00 0.02 0.00 95 1015.1
20260901105112 71 243 0.0 0.0 0.00 0.02 0.00 95 1015.1
20260901104610 71 272 0.0 1.0 0.00 0.02 0.00 95 1015.0
20260901104109 71 290 0.0 0.0 0.00 0.02 0.00 95 1015.0
20260901103608 71 246 0.0 2.0 0.00 0.02 0.00 95 1015.0
20260901103107 71 268 0.0 4.0 0.00 0.02 0.00 95 1015.0
20260901102607 71 284 1.0 5.0 0.00 0.02 0.00 95 1015.0
20260901102106 71 300 1.0 7.0 0.00 0.02 0.00 95 1014.9
20260901101604 71 301 0.0 0.0 0.00 0.02 0.00 95 1014.8
20260901101103 71 287 1.0 8.0 0.00 0.02 0.00 95 1014.8
20260901100602 71 277 0.0 3.0 0.00 0.02 0.00 94 1014.9
20260901100101 71 269 0.0 3.0 0.00 0.02 0.00 94 1014.9
20260901095600 71 285 0.0 2.0 0.00 0.02 0.00 94 1014.9
20260901095121 71 280 0.0 3.0 0.00 0.02 0.00 94 1014.9
20260901094558 71 280 0.0 3.0 0.00 0.02 0.00 94 1014.9
20260901094058 72 319 0.0 1.0 0.00 0.02 0.00 94 1014.9
20260901093557 72 281 0.0 4.0 0.00 0.02 0.00 94 1014.9
20260901093056 72 280 0.0 0.0 0.00 0.02 0.00 94 1014.8
20260901092554 72 285 0.0 1.0 0.00 0.02 0.00 94 1014.8
20260901092053 72 277 0.0 3.0 0.00 0.02 0.00 94 1014.8
20260901091552 72 280 0.0 5.0 0.00 0.02 0.00 93 1014.7
20260901091051 72 311 0.0 2.0 0.00 0.02 0.00 93 1014.7
20260901090550 72 270 1.0 5.0 0.00 0.02 0.00 93 1014.6